Flag for Russia Weather past 2 weeks in Kazan, Russia

Now
63 °F

Clear.


Feels Like: 63 °F
Forecast: 60 / 80 °F
Wind: 3 mph from West

Location: Kazan'

Current Time: May 22, 2015 at 11:09:53 PM

Latest Report: May 22, 2015 at 10:30 PM


Visibility: 10 mi

Pressure: 30.01 "Hg

Humidity: 68%

Dew point: 52 °F

Location of KazanLocation

Historic Weather in Kazan — Graph

°F

Kazan temperature yesterday

Maximum temperature yesterday: 72 °F (at 3:00 PM)
Minimum temperature yesterday: 52 °F (at 2:00 AM)
Average temperature yesterday: 62 °F

Past Weeks' High & Low Weather Summary

 TemperatureHumidityPressure
High77 °F (May 22, 11:30 AM)100% (May 18, 4:00 PM)30.18 "Hg (May 18, 4:00 PM)
Low37 °F (May 8, 2:30 AM)15% (May 8, 3:00 PM)29.33 "Hg (May 18, 1:30 AM)
Average56 °F61%29.81 "Hg
* Reported May 7 10:00 PM — May 22 10:00 PM, Kazan, Weather by CustomWeather, © 2015

Note: Actual official high and low records may vary slightly from our data, if they occured in-between our weather recording intervals... More about our weather records

Advertising

Kazan weather history for previous 24 hours

 ConditionsComfort  
Time TempWeatherWind HumidityBarometerVisibility
10:00 PM
Fri, May 22
63 °FClear.3 mph68%30.01 "Hg10 mi
9:30 PM64 °FClear.3 mph64%30.01 "Hg10 mi
9:00 PM66 °FClear.6 mph60%30.04 "Hg10 mi
8:30 PM64 °FSunny.6 mph64%30.04 "Hg10 mi
8:00 PM70 °FSunny.6 mph53%30.04 "Hg10 mi
7:30 PM72 °FSunny.6 mph50%30.01 "Hg10 mi
7:00 PM73 °FSunny.6 mph44%30.01 "Hg10 mi
6:30 PM75 °FSunny.8 mph39%30.01 "Hg10 mi
6:00 PM77 °FSunny.10 mph34%30.04 "Hg10 mi
5:30 PM77 °FSunny.10 mph34%30.01 "Hg10 mi
5:00 PM77 °FSunny.10 mph34%30.04 "Hg10 mi
4:30 PM77 °FSunny.10 mph30%30.04 "Hg10 mi
4:00 PM77 °FSunny.13 mph32%30.04 "Hg10 mi
3:30 PM77 °FSunny.13 mph32%30.04 "Hg10 mi
3:00 PM77 °FSunny.13 mph32%30.07 "Hg10 mi
2:30 PM75 °FSunny.13 mph36%30.07 "Hg10 mi
2:00 PM77 °FPassing clouds.13 mph32%30.07 "HgN/A
1:30 PM77 °FPassing clouds.13 mph32%30.07 "HgN/A
1:00 PM75 °FSunny.13 mph31%30.07 "Hg10 mi
12:30 PM73 °FSunny.15 mph33%30.07 "Hg10 mi
12:00 PM75 °FPassing clouds.13 mph31%30.07 "HgN/A
11:30 AM77 °FSunny.15 mph32%30.07 "Hg10 mi
11:00 AM75 °FSunny.15 mph31%30.07 "Hg10 mi
10:30 AM75 °FSunny.15 mph34%30.07 "Hg10 mi
10:00 AM73 °FSunny.17 mph41%30.07 "Hg10 mi
9:30 AM73 °FSunny.15 mph41%30.09 "Hg10 mi
9:00 AM72 °FSunny.13 mph44%30.09 "Hg10 mi
8:30 AM70 °FSunny.13 mph50%30.09 "Hg10 mi
8:00 AM68 °FSunny.10 mph49%30.09 "Hg10 mi
7:30 AM68 °FSunny.10 mph53%30.09 "Hg10 mi
7:00 AM64 °FSunny.10 mph64%30.09 "Hg10 mi
6:30 AM63 °FSunny.10 mph68%30.09 "Hg10 mi
6:00 AM61 °FSunny.10 mph68%30.09 "Hg10 mi
5:30 AM57 °FSunny.10 mph77%30.09 "Hg10 mi
5:00 AM55 °FSunny.8 mph77%30.09 "Hg10 mi
4:30 AM54 °FSunny.8 mph82%30.07 "Hg10 mi
4:00 AM54 °FClear.8 mph77%30.07 "Hg10 mi
3:30 AM52 °FClear.8 mph82%30.07 "Hg10 mi
3:00 AM52 °FClear.8 mph82%30.07 "Hg10 mi
2:30 AM54 °FClear.8 mph72%30.07 "Hg10 mi
2:00 AM54 °FClear.8 mph72%30.07 "Hg10 mi
1:30 AM55 °FClear.8 mph67%30.07 "Hg10 mi
1:00 AM55 °FClear.8 mph67%30.07 "Hg10 mi
12:30 AM55 °FClear.8 mph63%30.07 "Hg10 mi
11:30 PM
Thu, May 21
55 °FClear.8 mph67%30.07 "Hg10 mi
11:00 PM59 °FClear.6 mph59%30.07 "Hg10 mi
Weather by CustomWeather, © 2015

See weather overviewHow to use our weather pages